Location: Dattensoll
(49.9928°N, 9.8954°E)
Time: 19:00:08
(UTC+00:00)

Cosmos 1656 - Pass Details

Date: 19 May 2025
Orbit: 796 x 848 km, 71.1° (Epoch: 20 June)

Event Time Altitude Azimuth Distance (km) Brightness Sun altitude
Rises 19:49:28 0° 329° (NNW) 3,410 8.6 -6.4°
Reaches altitude 10° 19:51:56 10° 327° (NNW) 2,465 7.7 -6.7°
Maximum altitude 19:57:32 65° 246° (WSW) 913 4.0 -7.4°
Drops below altitude 10° 20:03:01 10° 166° (SSE) 2,416 5.6 -8.0°
Enters shadow 20:04:00 - 165° (SSE) 2,790 5.9 -8.1°
